F4MLU-13 Weather Reports


time (UTC)temp
C
wind
direction
speed
KPH
gust
KPH
rain 1hr
cm
rain 24hr
cm
rain mn
cm
humidity
%
barometer
mb
20260506132023 21 144 0.0 0.0 0.00 3.20 0.00 51
20260506131022 20 146 0.0 0.0 0.00 3.20 0.00 54
20260506130043 19 142 0.0 0.0 0.00 3.40 0.00 56
20260506125022 19 159 0.0 0.0 0.00 4.19 0.00 52
20260506124023 21 111 0.0 0.0 0.00 4.19 0.00 47
20260506123023 20 238 0.0 0.0 0.00 4.39 0.00 51
20260506122023 18 227 0.0 0.0 0.00 4.39 0.00 54
20260506121024 21 235 0.0 0.0 0.00 4.39 0.00 49
20260506120023 19 147 0.0 0.0 0.00 4.39 0.00 54
20260506115023 18 158 0.0 0.0 0.00 4.39 0.00 55
20260506114023 18 168 0.0 0.0 0.00 4.39 0.00 54
20260506113023 19 147 0.0 0.0 0.00 4.39 0.00 52
20260506112023 19 149 0.0 0.0 0.00 4.39 0.00 53
20260506111103 18 136 0.0 0.0 0.00 4.39 0.00 53
20260506110023 20 146 0.0 0.0 0.00 4.39 0.00 50
20260506105113 19 152 0.0 0.0 0.00 4.39 0.00 53
20260506104023 20 125 0.0 0.0 0.00 4.39 0.00 53
20260506103023 18 147 0.0 0.0 0.00 4.39 0.00 51
20260506102023 18 150 0.0 0.0 0.00 4.39 0.00 53
20260506100153 18 225 0.0 0.0 0.00 4.39 0.00 56
20260506084753 15 144 0.0 0.0 0.00 4.39 0.00 66
20260506062024 9 147 0.0 0.0 0.00 4.39 0.00 96
20260506061054 8 147 0.0 0.0 0.00 4.39 0.00 97
20260506051104 7 155 0.0 0.0 0.00 4.39 0.00 99
20260506045024 7 154 0.0 0.0 0.00 4.39 0.00 98
20260506044024 7 154 0.0 0.0 0.00 4.39 0.00 98
20260506043024 7 157 0.0 0.0 0.00 4.39 0.00 98
20260506042024 7 157 0.0 0.0 0.00 4.39 0.00 98
20260506041024 7 157 0.0 0.0 0.00 4.39 0.00 98
20260506040024 7 151 0.0 0.0 0.00 4.39 0.00 97
20260506035024 8 150 0.0 0.0 0.00 4.39 0.00 97
20260506034024 8 149 0.0 0.0 0.00 4.39 0.00 97
20260506033024 8 153 0.0 0.0 0.00 4.39 0.00 97
20260506032024 8 149 0.0 0.0 0.00 4.39 0.00 96
20260506031054 8 144 0.0 0.0 0.00 4.39 0.00 97
20260506030024 8 254 0.0 0.0 0.00 4.39 0.00 97
20260506025024 8 254 0.0 0.0 0.00 4.39 0.00 98
20260506024044 8 147 0.0 0.0 0.00 4.39 0.00 98
20260506023024 8 155 0.0 0.0 0.00 4.39 0.00 98
20260506022024 8 156 0.0 0.0 0.00 4.39 0.00 98
20260506021024 8 156 0.0 0.0 0.00 4.39 0.00 98
20260506020024 8 157 0.0 0.0 0.00 4.39 0.00 98
20260506015025 8 157 0.0 0.0 0.00 4.39 0.00 98
20260506014024 8 157 0.0 0.0 0.00 4.39 0.00 98
20260506013024 8 158 0.0 0.0 0.00 4.39 0.00 97
20260506012024 9 157 0.0 0.0 0.00 4.39 0.00 97
20260506011044 9 158 0.0 0.0 0.00 4.39 0.00 98
20260506010024 8 153 0.0 0.0 0.00 4.39 0.00 98
20260506005024 8 161 0.0 0.0 0.00 4.39 0.00 98
20260506004024 9 160 0.0 0.0 0.00 4.39 0.00 98
20260506003024 9 161 0.0 0.0 0.00 4.39 0.00 98
20260506002054 9 158 0.0 0.0 0.00 4.39 0.00 98
20260506001024 9 150 0.0 0.0 0.00 4.39 0.00 98
20260506000024 9 150 0.0 0.0 0.00 4.39 0.00 97
20260505235104 9 150 0.0 0.0 0.00 4.39 0.00 97
20260505234024 9 150 0.0 0.0 0.00 4.39 0.00 97
20260505233024 9 150 0.0 0.0 0.00 4.39 0.00 97
20260505232024 9 150 0.0 0.0 0.00 4.39 0.00 96
20260505231024 10 144 0.0 0.0 0.00 4.39 0.00 96
20260505230025 10 144 0.0 0.0 0.00 4.39 0.00 96
20260505225024 10 144 0.0 0.0 0.00 4.39 0.00 95
20260505224044 10 148 0.0 0.0 0.00 4.39 0.00 96
20260505223055 10 146 0.0 0.0 0.00 4.39 0.00 96
20260505222024 10 154 0.0 0.0 0.00 4.39 0.00 95
20260505221025 10 157 0.0 0.0 0.00 4.39 0.00 96
20260505220045 9 152 0.0 0.0 0.00 4.39 0.00 97
20260505205525 9 150 0.0 0.0 0.00 4.39 4.39 98
20260505204725 9 152 0.0 0.0 0.00 4.39 4.39 98
20260505202624 9 159 0.0 0.0 0.00 4.39 4.39 98
20260505201555 9 143 0.0 0.0 0.00 4.39 4.39 98
20260505200725 9 157 0.0 0.0 0.00 4.39 4.39 98
20260505193525 10 154 0.0 0.0 0.00 4.39 4.39 97
20260505192525 10 147 0.0 0.0 0.00 4.39 4.39 96
20260505191525 10 143 0.0 0.0 0.00 4.39 4.39 95
20260505190555 10 143 0.0 0.0 0.00 4.39 4.39 94
20260505185555 11 142 0.0 0.0 0.00 4.39 4.39 93
20260505182525 11 147 0.0 0.0 0.00 4.39 4.39 94
20260505181545 11 147 0.0 0.0 0.00 4.39 4.39 94
20260505180525 12 147 0.0 0.0 0.00 4.39 4.39 93
20260505175055 12 156 0.0 0.0 0.00 4.39 4.39 89
20260505174046 12 157 0.0 0.0 0.00 4.39 4.39 86
20260505173025 13 154 0.0 0.0 0.00 4.60 4.39 82
20260505172025 13 151 0.0 0.0 0.00 4.60 4.39 85
20260505171025 13 158 0.0 0.0 0.00 4.80 4.39 85
20260505170025 13 151 0.0 0.0 0.00 4.80 4.39 84
20260505165025 13 149 0.0 0.0 0.00 5.00 4.39 82
20260505164025 14 164 0.0 0.0 0.00 5.00 4.39 82
20260505163025 14 153 0.0 0.0 0.00 5.21 4.39 83
20260505162026 13 153 0.0 0.0 0.00 5.41 4.39 85
20260505161025 13 149 0.0 0.0 0.00 5.59 4.39 86
20260505153025 12 145 0.0 0.0 0.00 5.59 4.39 92
20260505152025 11 143 0.0 0.0 0.20 5.59 4.39 91
20260505151045 12 147 0.0 0.0 0.41 5.59 4.39 91